Reading, PA

5:56 PM EDT on September 19, 2019 (GMT -0400)
Reading Regional-Spaatz

Weather History for KRDG - July, 2019

Change the Weather History Date:

Monday, July 15, 2019

  Actual Average Record
Temperature  
Mean Temperature 75 °F 75 °F  
Max Temperature 86 °F 86 °F 96 °F (1995)
Min Temperature 63 °F 65 °F 53 °F (1888)
Degree Days  
Heating Degree Days 0 0  
Month to date heating degree days 0 0  
Since 1 June heating degree days 16 24  
Since 1 July heating degree days 0 0  
Cooling Degree Days 10 10  
Month to date cooling degree days 191 147  
Year to date cooling degree days 501 396  
Since 1 June cooling degree days 396 336  
Growing Degree Days 24 (Base 50)    
Moisture  
Dew Point 63 °F    
Average Humidity 72    
Maximum Humidity 100    
Minimum Humidity 44    
Precipitation  
Precipitation 0.00 in 0.15 in 3.30 in (1994)
Month to date precipitation 3.28 2.14  
Year to date precipitation 34.64 22.94  
Sea Level Pressure  
Sea Level Pressure 30.07 in    
Wind  
Wind Speed 3 mph (West)    
Max Wind Speed 14 mph    
Max Gust Speed 17 mph    
Visibility 10 miles    
Events      
T = Trace of Precipitation, MM = Missing Value Source: NWS Daily Summary

Daily Weather History Graph

Daily Weather History Graph

Search for Another Location

Airport or City:

Astronomy

Jul. 15, 2019 Rise Set
Actual Time 5:46 AM EDT 8:32 PM EDT
Civil Twilight 5:14 AM EDT 9:04 PM EDT
Nautical Twilight 4:33 AM EDT 9:45 PM EDT
Astronomical Twilight 3:47 AM EDT 10:31 PM EDT
Moon 7:48 PM EDT (7/15) 4:31 AM EDT (7/15)
Length of Visible Light 15h 50m
Length of Day
14h 46m
Waxing Gibbous, 98% of the Moon is Illuminated
Jul 15
Waxing Gibbous
Jul 16
Full
Jul 24
Last Quarter
Jul 31
New
Aug 7
First Quarter

Hourly Weather History & Observations

Time (EDT) Temp. Heat Index Dew Point Humidity Pressure Visibility Wind Dir Wind Speed Gust Speed Precip Events Conditions
12:54 AM 71.1 °F - 63.0 °F 75% 30.05 in 10.0 mi Calm Calm - N/A   Clear
1:54 AM 66.9 °F - 63.0 °F 87% 30.06 in 10.0 mi NW 4.6 mph - N/A   Clear
2:54 AM 68.0 °F - 63.0 °F 84% 30.06 in 10.0 mi Calm Calm - N/A   Clear
3:54 AM 64.9 °F - 64.0 °F 97% 30.06 in 10.0 mi SSE 3.5 mph - N/A   Clear
6:54 AM 64.9 °F - 63.0 °F 93% 30.10 in 10.0 mi South 3.5 mph - N/A   Clear
7:54 AM 69.1 °F - 64.0 °F 84% 30.11 in 10.0 mi Calm Calm - N/A   Clear
8:54 AM 73.9 °F - 64.0 °F 71% 30.13 in 10.0 mi North 3.5 mph - N/A   Clear
9:54 AM 77.0 °F - 64.0 °F 64% 30.12 in 10.0 mi NNW 3.5 mph - N/A   Clear
10:54 AM 80.1 °F 81.2 °F 62.1 °F 54% 30.12 in 10.0 mi North 4.6 mph - N/A   Clear
11:54 AM 80.1 °F 80.7 °F 59.0 °F 48% 30.11 in 10.0 mi Calm Calm - N/A   Clear
12:54 PM 82.0 °F 82.7 °F 61.0 °F 49% 30.09 in 10.0 mi Variable 3.5 mph - N/A   Partly Cloudy
1:54 PM 82.9 °F 83.3 °F 61.0 °F 47% 30.07 in 10.0 mi South 3.5 mph - N/A   Partly Cloudy
2:54 PM 84.0 °F 84.9 °F 63.0 °F 49% 30.06 in 10.0 mi WSW 12.7 mph - N/A   Clear
3:54 PM 84.0 °F 84.4 °F 61.0 °F 46% 30.06 in 10.0 mi Variable 3.5 mph - N/A   Clear
4:54 PM 84.9 °F 85.4 °F 62.1 °F 46% 30.04 in 10.0 mi Variable 5.8 mph - N/A   Clear
5:54 PM 84.9 °F 85.4 °F 62.1 °F 46% 30.04 in 10.0 mi WSW 8.1 mph - N/A   Clear
6:54 PM 84.0 °F 84.9 °F 63.0 °F 49% 30.04 in 10.0 mi WNW 6.9 mph - N/A   Clear
7:54 PM 82.0 °F 83.0 °F 62.1 °F 51% 30.04 in 10.0 mi WNW 4.6 mph - N/A   Clear
8:54 PM 77.0 °F - 64.9 °F 66% 30.05 in 10.0 mi Calm Calm - N/A   Clear
9:54 PM 75.9 °F - 66.0 °F 71% 30.06 in 10.0 mi Calm Calm - N/A   Clear
10:54 PM 73.0 °F - 64.9 °F 76% 30.06 in 10.0 mi Calm Calm - N/A   Clear
11:54 PM 72.0 °F - 64.9 °F 78% 30.09 in 10.0 mi Calm Calm - N/A   Clear